Showing default

TIANPING 3A-01, 61614

Orbit data source: Space-Track

TIANPING 3A-01, 61614 is a payload satellite owned by ZJUNI-SAT (CN) in SSO that was launched on Tue, 22 Oct 2024 UTC via a CHANG ZHENG 6 launch vehicle from the Taiyaun Space Center, China (TSC). Payload-class satellites include a variety of spacecraft equipped with specific instruments for various scientific and technological missions. These include communications satellites like Starlink; space stations such as the ISS; scientific satellites like the Hubble; Earth observation satellites from companies like Planet Labs, Umbra, and HawkEye 360; GPS; miniature CubeSats for education and research; and military/defense satellites.

Loading next visibility...
Identifier
61614, 2024-189A
Orbit
SSO
Country
Flag of CNCN / PRC
Related business
Manufacturer
ZJUNI-SAT
Mission
Operational Defense Calibration
Bus & Motor
TP-3, Unknown motor
Mass
200 kg wet, ~200 kg dry
Launch date (UTC)
2024-10-22 (11 months ago)
Launch vehicle
CHANG ZHENG 6
Launch site
Taiyaun Space Center, China (TSC)
Object type
Payload
Rocket body
Debris
Shape & HBR
Box, 0.3 m
Radar Cross Section
0.135 m², Large (>1 m²)

Expand to show TLE details & history
Last TLE update: 2 days ago

TLE from 2 days ago
0 TIANPING 3A-01
1 61614U 24189A   25258.99133116  .00004013  00000-0  31839-3 0  9992
2 61614  97.5626 282.3106 0002804  99.7536 260.4006 15.01057869 49351
Epoch: 2025-09-15T23:47Z
TLE epoch observation values (Epoch: 2025-09-15T23:47:31.012Z)
Latitude
0.00008°
Longitude
-69.75667°
Altitude
567.018 km
Speed
7.577 km/s
True Right ascension
18h 49m 14s
True Declination
0° 00' 00"
Sunlit
Object was in daylight at epoch
Visualization orbit readout
Latitude
Unknown
Longitude
Unknown
Altitude
Unknown
Speed
Unknown
Apparent Right ascension
Unknown
Apparent Declination
Unknown
Sunlit
N/A
Visualization observer readout
Local Sidereal Time
08:02:52
Azimuth
Unknown
Elevation
Unknown
Doppler factor
Unknown
Orbital elements
Apogee altitude
562.576 km
Perigee altitude
558.685 km
Semi-major axis
6,938.768 km
Eccentricity
0.00028
Inclination
97.5626°
RAAN
282.3106°
Arg. of periapsis
99.7536°
True anomaly
260.36892°
Mean anomaly
260.4006°
Eccentric anomaly
260.38476°
Mean motion
3.75508 °/min
Orbital period
95.87 mins
BSTAR
0.00031839
Loading maneuver chart data...
Computing Atmospheric mass density...
Loading historical data...
Loading historical data...
Loading historical data...
Loading historical data...
Loading historical data...
Loading historical data...
Loading historical data...
Other satellites on launch #189 in the year 2024 (2024-10-22 UTC)

Documentation

Showing up to 5 results
|